カタログに戻る

STARLINK-34323

運用中通信VLEO
NORAD 64219·PAYLOAD·🇺🇸 United States

打ち上げ May 31, 2025 から Vandenberg Space Force Base

Loading…

次のパス (今後24時間)

TLE

最新Source: CelesTrak SupGP

元期: Sep 15, 2026, 03:11 UTC

1 64219C 25117S   26258.13312500 -.00049087  00000+0 -14503-2 0  2588
2 64219  53.1570 238.4834 0001321  90.3807  27.0589 15.34413892    13

AllMySatでSTARLINK-34323をリアルタイム追跡

Download on the App Store